Home   Weather   Launceston   Past weeks

Flag for Australia Past Weather in Launceston, Tasmania, Australia — Yesterday and Last 2 Weeks

39 °F

Passing clouds.

Feels Like: 32 °F
Forecast: 40 / 58 °F
Wind: 12 mph from Southeast

Location: Launceston Airport

Current Time: Oct 23, 2016 at 6:43:19 AM

Latest Report: Oct 23, 2016 at 6:00 AM

Visibility: N/A

Pressure: 30.18 "Hg

Humidity: 81%

Dew Point: 34 °F

Location of LauncestonLocation

Past Weather in Launceston — Graph


Launceston Temperature Yesterday

Maximum temperature yesterday: 55 °F (at 3:00 PM)
Minimum temperature yesterday: 39 °F (at 11:30 PM)
Average temperature yesterday: 45 °F

High & Low Weather Summary for the Past Weeks

High64 °F (Oct 15, 2:00 PM)100% (Oct 12, 4:00 AM)30.21 "Hg (Oct 12, 4:00 AM)
Low32 °F (Oct 11, 6:00 AM)38% (Oct 19, 1:00 PM)29.27 "Hg (Oct 9, 8:00 PM)
Average48 °F74%29.82 "Hg
* Reported Oct 8 5:00 AM — Oct 23 5:00 AM, Launceston, Weather by CustomWeather, © 2016

Note: Actual official high and low records may vary slightly from our data, if they occured in-between our weather recording intervals... More about our weather records


Launceston Weather History for the Previous 24 Hours

Scroll right to see more
Time TempWeatherWind HumidityBarometerVisibility
5:00 AM
Sun, Oct 23
39 °FPassing clouds.12 mph87%30.18 "HgN/A
4:30 AM39 °FPassing clouds.8 mph87%30.18 "HgN/A
4:00 AM39 °FClear.7 mph81%30.18 "HgN/A
3:30 AM41 °FPassing clouds.8 mph81%30.18 "HgN/A
3:00 AM41 °FMostly cloudy.8 mph87%30.18 "HgN/A
2:30 AM41 °FMostly cloudy.3 mph87%30.18 "HgN/A
2:00 AM39 °FMostly cloudy.6 mph87%30.18 "HgN/A
1:30 AM41 °FPartly cloudy.6 mph81%30.18 "HgN/A
1:00 AM41 °FPassing clouds.No wind87%30.18 "HgN/A
12:30 AM39 °FPassing clouds.2 mph81%30.18 "HgN/A
12:00 AM41 °FClear.10 mph81%30.18 "HgN/A
11:30 PM
Sat, Oct 22
39 °FClear.8 mph87%30.18 "HgN/A
11:00 PM41 °FPassing clouds.9 mph87%30.18 "HgN/A
10:30 PM41 °FClear.10 mph87%30.18 "HgN/A
10:00 PM43 °FClear.13 mph81%30.18 "HgN/A
9:30 PM43 °FPassing clouds.15 mph81%30.15 "HgN/A
9:00 PM45 °FPassing clouds.17 mph76%30.15 "HgN/A
8:30 PM43 °FPassing clouds.9 mph81%30.12 "HgN/A
8:00 PM46 °FPassing clouds.14 mph71%30.12 "HgN/A
7:30 PM46 °FPartly sunny.16 mph66%30.09 "HgN/A
7:00 PM48 °FScattered clouds.17 mph66%30.09 "HgN/A
6:30 PM50 °FScattered clouds.17 mph58%30.07 "HgN/A
6:00 PM52 °FScattered clouds.18 mph58%30.07 "HgN/A
5:00 PM54 °FScattered clouds.22 mph54%30.04 "HgN/A
4:00 PM55 °FScattered clouds.21 mph55%30.01 "HgN/A
3:57 PM54 °FScattered clouds.23 mph63%30.01 "HgN/A
3:00 PM55 °FScattered clouds.21 mph63%29.98 "HgN/A
2:01 PM54 °FBroken clouds.21 mph58%29.98 "HgN/A
1:00 PM52 °FScattered clouds.21 mph72%29.98 "HgN/A
12:00 PM48 °FBroken clouds.24 mph76%29.98 "HgN/A
11:00 AM46 °FMore clouds than sun.22 mph76%29.98 "HgN/A
10:30 AM46 °FMostly cloudy.17 mph82%29.98 "HgN/A
10:00 AM45 °FLight rain. Mostly cloudy.12 mph87%29.95 "HgN/A
9:00 AM41 °FLight rain. Broken clouds.10 mph93%29.95 "HgN/A
8:30 AM41 °FLight rain. Broken clouds.12 mph93%29.95 "HgN/A
8:00 AM41 °FRain. Cloudy.13 mph93%29.95 "HgN/A
7:30 AM41 °FLight rain. Broken clouds.16 mph87%29.95 "HgN/A
7:00 AM41 °FLight rain. Cloudy.14 mph87%29.92 "HgN/A
6:30 AM41 °FOvercast.14 mph87%29.92 "HgN/A
6:00 AM41 °FOvercast.13 mph87%29.92 "HgN/A
Weather by CustomWeather, © 2016

See weather overviewHow to use our weather pages